Wind_Speed
24 24 25 26 25 24 22 20 20 22 22 20 24 24 21 20 18 19 22 23 24 24 23 26 29 31 33 35 37 36 37 43 40 30 33 29 28 31 35 37 40 44 48 51
26 26 28 27 25 23 22 20 21 22 21 21 25 25 24 23 22 21 23 25 25 26 28 30 32 33 35 36 38 37 37 39 46 48 33 34 34 39 43 42 45 48 49 54
26 29 29 27 24 22 22 21 22 22 23 24 26 24 26 26 27 27 27 28 28 29 32 34 34 35 34 34 36 38 40 41 40 42 43 48 48 52 49 49 50 50 54 59
28 30 28 27 25 22 22 23 23 24 22 19 23 18 25 26 27 27 28 29 31 32 33 34 34 33 33 34 36 39 42 45 44 50 54 54 53 54 54 54 55 59 63 67
28 29 28 27 25 23 23 23 23 24 21 22 22 18 23 26 25 25 26 27 29 30 30 31 34 35 36 37 39 42 44 47 49 51 53 55 56 57 58 60 64 67 70 74
28 27 26 26 24 23 23 23 24 23 20 20 19 19 18 27 24 25 25 26 28 30 32 34 36 38 39 41 43 44 45 47 50 52 54 55 57 59 62 66 69 72 75 77
26 26 27 25 24 23 23 22 18 18 17 18 23 22 22 26 25 25 26 28 30 32 34 36 38 40 41 42 42 43 44 44 46 49 52 55 59 64 67 70 73 76 79 80
25 25 26 25 24 23 22 21 18 18 17 19 27 25 25 24 25 26 27 29 31 32 33 34 35 36 37 37 37 39 41 43 46 51 56 61 65 69 72 75 78 81 82 83
26 25 28 25 24 24 24 24 22 22 23 23 24 27 25 23 25 26 29 30 30 31 31 31 31 31 32 33 36 39 43 47 52 57 62 66 70 74 77 81 83 84 84 83
28 26 28 26 26 26 26 24 24 23 21 22 20 23 24 24 25 29 31 32 33 32 31 31 32 35 37 39 42 46 49 54 58 63 67 72 76 80 83 86 85 83 80 76
30 29 29 28 28 25 26 26 26 24 24 22 20 23 28 31 31 34 35 36 35 34 35 36 38 40 43 45 48 51 55 60 64 69 73 77 81 85 86 85 82 75 65 54
33 33 31 32 32 29 28 27 26 26 24 26 25 27 32 34 35 38 38 38 38 38 40 41 42 44 47 49 53 57 61 66 70 75 79 82 84 85 82 73 60 49 43 42
38 37 37 40 38 32 30 29 27 27 26 28 29 29 35 38 38 41 42 41 40 41 42 43 44 46 49 53 58 62 67 71 75 78 80 79 76 68 56 46 43 41 37 35
41 42 43 40 36 30 33 30 29 29 29 29 33 37 38 40 41 44 44 42 42 43 45 45 46 49 53 58 62 66 70 73 74 73 70 64 53 44 40 38 35 30 27 27
44 45 45 44 41 36 39 36 35 35 36 36 35 40 40 41 43 45 44 42 43 45 45 45 48 52 56 61 65 68 71 69 65 61 55 48 40 34 28 23 20 20 21 23
46 46 45 45 43 41 43 43 41 39 38 37 37 41 41 42 44 43 42 42 43 44 45 46 50 55 59 63 66 67 61 50 40 34 28 24 21 18 16 17 17 19 21 21
45 46 45 46 46 44 46 45 43 40 38 37 40 42 39 41 41 41 41 42 43 43 44 48 53 58 61 62 61 53 36 24 24 24 21 19 18 17 18 22 24 26 26 26
41 42 42 45 44 44 46 43 40 38 38 38 39 40 40 40 40 42 42 42 41 42 47 52 57 60 60 55 46 30 18 19 21 17 17 20 21 23 26 28 27 26 26 27
38 40 40 40 39 41 41 38 36 37 38 38 38 38 39 39 40 41 38 38 40 44 49 54 58 57 50 41 28 15 15 16 15 15 19 23 25 26 27 28 29 29 29 29
38 39 38 36 36 35 36 34 35 36 37 36 36 37 37 37 38 39 36 37 41 46 51 55 53 44 35 22 10 9 10 11 12 17 21 24 26 28 30 32 33 34 34 33
43 42 41 41 39 38 37 36 35 35 36 35 35 35 35 36 34 33 33 37 42 46 49 46 37 27 13 3 4 5 7 9 14 19 22 25 28 30 33 35 37 39 38 36
44 40 40 43 39 34 32 32 33 34 34 34 34 33 32 31 28 29 33 38 42 44 39 30 20 8 2 4 5 6 8 12 16 20 23 26 29 32 35 38 40 38 34 31
41 35 35 33 30 31 31 31 31 31 32 31 31 29 28 25 25 30 35 38 40 36 25 16 5 4 6 8 8 8 11 15 18 21 25 29 32 35 37 40 40 36 30 29
39 31 23 19 25 29 29 27 26 28 29 28 26 23 21 23 28 33 35 37 33 22 12 3 5 8 10 9 9 11 14 17 19 23 26 30 33 37 40 41 39 33 29 29
17 21 22 21 21 22 27 28 28 26 26 24 20 19 22 26 30 33 34 29 20 10 4 7 11 11 10 9 10 14 15 18 20 22 26 30 35 39 41 41 39 32 29 30
18 22 24 26 25 25 27 27 26 24 21 18 18 21 24 28 31 31 28 18 9 7 9 13 14 11 9 10 12 13 15 17 19 23 27 31 35 39 42 41 39 34 30 32
Wind_Direction
239 241 242 244 249 254 259 262 266 268 271 270 266 272 276 271 258 261 267 266 275 281 281 281 286 292 297 298 298 297 294 293 293 297 294 284 277 283 290 289 285 286 287 290
242 243 245 251 253 256 260 262 262 262 265 265 264 269 272 271 269 267 265 264 265 268 274 278 279 282 289 293 297 296 290 289 294 303 290 284 277 286 295 292 289 289 289 291
244 247 250 252 253 255 258 259 259 262 265 268 270 272 269 266 266 268 266 265 264 265 270 275 278 282 284 286 288 286 285 289 293 296 296 292 288 293 297 295 294 294 295 295
243 247 248 251 253 254 258 258 259 261 265 263 268 266 276 273 264 266 267 267 270 274 278 282 283 283 283 284 282 281 284 288 285 284 285 287 291 295 296 297 298 297 298 297
244 246 249 250 252 253 251 260 262 264 262 255 265 260 268 275 276 274 274 275 277 279 281 283 284 284 283 282 280 281 281 282 282 282 283 287 291 294 296 297 297 297 297 296
247 249 249 250 252 254 257 260 263 264 262 263 259 255 261 269 274 275 275 275 275 276 278 279 280 279 278 278 277 277 277 277 279 282 285 289 290 292 293 294 295 294 295 296
244 247 248 250 253 254 257 260 258 259 256 259 256 261 254 267 278 279 279 281 283 283 282 282 283 282 281 279 277 277 279 281 283 286 287 289 290 292 292 293 293 294 296 298
249 254 254 254 252 253 251 249 239 247 255 260 267 266 269 277 281 284 288 290 291 291 291 291 289 287 284 283 282 282 283 284 285 287 289 290 290 291 292 293 294 296 298 299
248 246 254 254 252 249 248 249 242 240 247 247 263 273 276 281 285 291 295 296 297 298 298 296 295 293 291 289 287 286 285 286 287 288 290 291 292 293 293 294 296 298 298 298
249 247 252 252 250 249 247 246 246 247 246 254 258 270 280 284 292 299 301 302 303 302 300 299 299 298 297 296 295 293 293 293 294 294 294 294 293 293 294 296 297 297 298 299
247 246 249 250 247 244 245 243 241 235 238 243 257 268 276 286 295 299 300 303 303 300 299 301 301 300 300 300 300 299 298 298 297 296 295 295 295 296 296 297 298 298 298 297
240 244 244 249 249 244 243 240 239 241 247 257 253 258 268 280 292 296 299 302 302 300 301 302 303 303 303 302 302 301 301 300 300 299 299 299 299 299 299 300 299 299 299 297
237 236 240 245 249 248 246 246 247 254 255 254 263 269 276 284 293 296 298 300 301 300 302 303 304 304 304 304 304 303 303 302 302 302 302 301 301 301 302 302 302 302 301 300
237 236 241 247 253 254 253 254 260 265 265 262 267 272 277 284 291 295 297 300 301 302 303 304 305 305 304 304 304 303 303 304 305 305 305 305 306 307 307 305 304 304 304 305
237 239 240 242 244 246 254 258 260 262 260 261 265 273 280 283 288 293 296 298 299 300 301 302 303 303 303 303 304 305 307 307 307 309 308 308 310 313 316 318 316 314 317 320
235 240 242 245 246 246 251 256 260 261 264 266 269 271 277 281 287 290 292 295 296 297 298 299 300 301 302 304 306 308 309 310 318 329 340 347 348 347 343 338 332 329 328 327
233 237 240 244 245 247 250 254 258 264 267 267 268 274 280 282 284 288 291 292 293 293 295 298 300 300 303 306 308 309 312 322 333 339 349 355 353 350 349 344 337 332 328 324
232 234 235 240 242 245 249 255 259 262 264 265 268 273 277 280 284 288 291 291 292 293 296 297 298 302 306 307 308 309 316 325 332 339 350 358 355 347 341 339 335 330 324 320
224 233 236 241 245 247 251 255 258 258 259 263 267 271 275 281 286 289 291 290 290 292 295 299 302 306 307 307 306 304 315 327 337 344 351 351 348 346 344 344 341 336 330 324
220 233 241 244 246 249 252 254 256 258 260 264 267 271 277 283 284 289 290 288 290 295 300 303 306 307 307 305 297 313 327 341 348 350 350 350 352 353 352 349 345 339 333 328
220 228 239 244 244 246 254 253 253 255 261 264 267 272 278 281 281 283 284 288 294 300 305 308 309 308 305 300 339 358 10 0 354 356 357 359 359 356 352 348 343 338 334 332
227 235 241 244 245 247 250 247 248 254 259 263 267 272 275 276 275 277 286 293 299 304 309 311 312 311 87 70 65 59 23 6 5 6 6 5 1 356 353 351 347 345 345 345
234 242 249 241 243 247 246 249 252 257 260 262 264 267 268 268 275 284 290 297 304 308 309 310 314 114 100 99 87 51 27 21 16 12 9 7 3 0 359 356 353 352 354 353
230 237 232 227 234 237 244 252 258 263 261 261 260 258 259 272 281 286 294 303 307 306 302 278 134 122 117 99 69 47 36 25 15 11 10 8 6 5 3 0 359 357 356 354
247 252 253 251 256 253 252 255 258 259 258 254 247 256 269 277 283 291 300 304 300 287 213 158 142 134 114 89 63 45 30 18 14 12 12 9 8 7 6 4 2 1 359 357
242 238 234 236 240 245 248 250 250 245 239 238 254 267 273 280 288 297 302 295 266 192 159 149 143 131 109 79 55 36 22 18 14 14 10 7 7 6 6 6 6 3 359 356
Height
5858 5859 5859 5860 5862 5864 5865 5866 5866 5865 5863 5863 5861 5861 5862 5862 5862 5861 5861 5860 5861 5860 5858 5855 5852 5848 5845 5841 5837 5832 5827 5822 5823 5819 5818 5814 5813 5812 5809 5807 5803 5800 5796 5793
5853 5853 5853 5854 5857 5858 5859 5860 5860 5859 5859 5858 5855 5856 5856 5856 5857 5857 5856 5855 5855 5854 5852 5850 5847 5845 5841 5835 5829 5827 5822 5817 5812 5808 5807 5805 5802 5800 5799 5797 5794 5791 5787 5783
5846 5846 5847 5849 5851 5853 5853 5854 5854 5854 5854 5852 5851 5851 5851 5850 5850 5850 5850 5849 5849 5848 5845 5843 5841 5838 5835 5831 5827 5821 5817 5810 5806 5802 5798 5797 5792 5788 5786 5784 5782 5778 5773 5768
5838 5839 5841 5843 5845 5847 5847 5847 5847 5847 5849 5850 5848 5851 5844 5844 5844 5843 5843 5842 5841 5839 5837 5834 5831 5829 5826 5823 5821 5816 5811 5804 5801 5796 5792 5786 5781 5778 5776 5772 5767 5762 5758 5753
5831 5832 5834 5837 5839 5840 5840 5840 5841 5841 5842 5843 5843 5845 5844 5838 5836 5836 5835 5834 5832 5830 5828 5825 5822 5819 5817 5814 5811 5808 5804 5798 5792 5788 5784 5779 5774 5769 5764 5759 5753 5748 5743 5737
5825 5826 5828 5830 5832 5833 5833 5834 5834 5834 5836 5837 5839 5839 5841 5833 5831 5829 5828 5826 5825 5823 5820 5817 5813 5810 5808 5805 5802 5798 5794 5790 5786 5782 5777 5771 5765 5759 5754 5748 5743 5736 5729 5722
5819 5820 5821 5823 5825 5826 5827 5828 5830 5830 5831 5832 5830 5831 5833 5828 5825 5823 5821 5819 5816 5814 5811 5807 5804 5800 5797 5794 5791 5788 5785 5781 5778 5773 5768 5762 5755 5748 5742 5736 5728 5721 5713 5706
5813 5814 5815 5816 5818 5820 5820 5823 5827 5829 5828 5828 5822 5823 5822 5821 5818 5815 5813 5811 5807 5804 5801 5798 5795 5792 5789 5786 5783 5780 5777 5773 5768 5762 5756 5749 5742 5735 5727 5719 5711 5703 5695 5687
5808 5809 5808 5809 5811 5813 5813 5814 5818 5819 5819 5819 5819 5814 5815 5813 5811 5809 5806 5803 5799 5796 5793 5790 5787 5784 5781 5778 5774 5770 5766 5762 5756 5750 5743 5735 5727 5719 5710 5701 5693 5684 5676 5668
5801 5803 5802 5803 5804 5804 5806 5808 5809 5809 5812 5813 5813 5811 5810 5806 5805 5802 5799 5795 5792 5789 5786 5783 5780 5776 5772 5769 5764 5759 5753 5748 5743 5735 5727 5719 5710 5701 5692 5682 5673 5665 5656 5648
5792 5794 5795 5796 5797 5799 5800 5801 5802 5804 5805 5807 5808 5809 5801 5799 5797 5794 5791 5788 5785 5781 5779 5775 5771 5767 5763 5759 5753 5747 5741 5735 5728 5719 5710 5701 5690 5680 5670 5660 5651 5643 5636 5631
5783 5785 5786 5787 5788 5791 5792 5794 5796 5797 5797 5797 5798 5801 5794 5791 5790 5787 5784 5781 5777 5774 5770 5766 5762 5757 5752 5747 5741 5735 5728 5719 5710 5701 5690 5680 5668 5657 5648 5639 5632 5626 5622 5618
5773 5776 5777 5776 5780 5783 5784 5786 5788 5789 5789 5790 5789 5792 5785 5783 5781 5778 5775 5772 5768 5765 5761 5756 5752 5747 5741 5735 5728 5720 5712 5704 5695 5684 5672 5660 5649 5638 5631 5625 5621 5617 5613 5610
5762 5765 5767 5769 5772 5775 5773 5777 5778 5780 5780 5781 5782 5779 5777 5774 5772 5769 5766 5762 5758 5754 5750 5746 5742 5736 5730 5724 5716 5708 5699 5690 5679 5667 5655 5644 5635 5628 5622 5617 5614 5611 5608 5603
5747 5752 5755 5757 5760 5764 5764 5766 5768 5770 5771 5772 5773 5769 5767 5766 5764 5761 5756 5753 5750 5745 5741 5737 5732 5726 5720 5713 5705 5696 5686 5676 5664 5653 5641 5631 5625 5620 5616 5613 5610 5606 5602 5597
5736 5740 5744 5746 5750 5753 5754 5755 5757 5759 5761 5762 5762 5760 5759 5757 5755 5752 5748 5745 5741 5737 5733 5728 5722 5716 5709 5701 5692 5683 5674 5664 5655 5645 5635 5627 5623 5619 5615 5611 5607 5602 5598 5593
5723 5728 5733 5735 5738 5741 5743 5745 5748 5750 5751 5752 5751 5750 5750 5748 5746 5743 5741 5737 5733 5729 5724 5718 5712 5706 5698 5690 5682 5673 5665 5658 5651 5645 5637 5631 5625 5620 5615 5610 5605 5599 5593 5587
5711 5716 5721 5722 5727 5730 5733 5735 5739 5740 5741 5741 5741 5741 5740 5738 5737 5735 5733 5729 5725 5721 5715 5709 5703 5695 5687 5680 5671 5665 5659 5655 5650 5644 5638 5631 5626 5621 5615 5609 5602 5595 5589 5583
5700 5705 5709 5713 5717 5719 5722 5727 5729 5730 5730 5731 5732 5731 5730 5729 5728 5726 5725 5721 5717 5711 5705 5699 5691 5684 5677 5669 5664 5659 5656 5653 5649 5644 5639 5632 5626 5620 5613 5606 5599 5591 5584 5578
5691 5695 5700 5703 5708 5710 5713 5717 5718 5720 5719 5721 5722 5722 5721 5721 5719 5716 5715 5711 5707 5702 5695 5688 5681 5674 5668 5662 5659 5657 5655 5652 5649 5645 5639 5632 5625 5618 5611 5603 5595 5587 5579 5572
5680 5684 5688 5693 5697 5698 5703 5706 5708 5710 5710 5712 5712 5712 5712 5711 5710 5708 5706 5702 5698 5693 5687 5679 5672 5667 5662 5659 5658 5658 5655 5653 5649 5644 5638 5630 5623 5615 5608 5600 5592 5582 5573 5565
5672 5676 5680 5684 5688 5691 5693 5695 5697 5699 5701 5702 5703 5703 5703 5702 5702 5700 5698 5694 5690 5684 5678 5672 5667 5663 5661 5660 5660 5658 5656 5653 5649 5643 5636 5629 5622 5614 5606 5598 5587 5577 5568 5560
5663 5669 5671 5676 5680 5682 5684 5686 5688 5690 5692 5692 5693 5694 5695 5695 5695 5693 5690 5687 5682 5675 5672 5668 5665 5663 5662 5662 5661 5659 5657 5653 5648 5642 5635 5628 5621 5613 5605 5595 5584 5573 5565 5557
5654 5659 5662 5665 5670 5673 5676 5679 5681 5682 5683 5684 5685 5687 5688 5689 5687 5685 5683 5679 5673 5670 5667 5666 5665 5664 5664 5664 5663 5660 5656 5653 5648 5641 5635 5628 5621 5612 5603 5593 5582 5571 5563 5555
5645 5650 5653 5659 5663 5666 5669 5671 5673 5674 5675 5677 5679 5681 5681 5681 5679 5678 5675 5671 5668 5667 5666 5666 5666 5667 5666 5665 5663 5660 5657 5653 5648 5642 5635 5628 5620 5611 5601 5592 5581 5571 5562 5554
5639 5643 5648 5652 5655 5658 5661 5664 5665 5667 5670 5672 5673 5674 5674 5673 5672 5670 5668 5665 5664 5665 5666 5666 5667 5668 5667 5666 5663 5661 5658 5654 5649 5642 5635 5628 5619 5610 5601 5591 5581 5571 5562 5553